Palermo / Bocca Di Falco Airport

Jump to: basic info | weather | frequencies | runways | comments

Related pages: nearby airports | nearby navaids | notams | map

Basic information (top)

Codes: LICP
Location: lon 38.110802, lat 13.313300, elev 345 ft / 105 m msl
Status: medium_airport

Weather (top)

Current conditions for Palermo / Punta Raisi Airport 11nm (21km) WNW (rec'd 2014/11/24 00:20Z):

LICJ 240020Z 14005KT 9999 FEW030 16/14 Q1025

Airport forecast for Palermo / Punta Raisi Airport 11nm (21km) WNW (rec'd 2014/11/23 00:22Z):

TAF LICJ 232300Z 2400/2424 17008KT 9999 SCT020 
      BECMG 2409/2411 06010KT 
      BECMG 2416/2418 VRB05KT

Frequencies (top)

Verify before use: may be inaccurate or out of date.

AFIS: 122.1 MHz (AFIS)
APP: 120.2 MHz (RAISI APP)

Runways (top)

17/35: 4,016 x 148 ft (1,224 x 45 m) — paved — not lighted — threshold 17 displaced 935 ft (285 m) — threshold 35 displaced 738 ft (225 m)

Latest comments (top)

No comments yet for Palermo / Bocca Di Falco Airport

More... (top)

See also NOTAMs and nearby airports and navaids, or visit the Palermo / Bocca Di Falco Airport page at the main OurAirports website..